This is the latest recevied weather packets stored in our database for station/object BRIVER. If no packets are shown the sender has not sent any weather packets the latest 10 day(s).
| Time | Temp. | Humidity | Pressure | Rain* | Wind** | Luminosity | Snow |
|---|---|---|---|---|---|---|---|
| 1777776935 | 15.56° C | 52% | 1012 hPa | 0 mm | - | - | - |
| 1777776635 | 15° C | 54% | 1012.4 hPa | 0 mm | - | - | - |
| 1777776576 | 15° C | 54% | 1012.4 hPa | 0 mm | - | - | - |
| 1777776335 | 15° C | 54% | 1012.4 hPa | 0 mm | - | - | - |
| 1777776035 | 14.44° C | 56% | 1012.4 hPa | 0 mm | - | - | - |
| 1777775735 | 13.89° C | 58% | 1012.4 hPa | 0 mm | - | - | - |
| 1777775496 | 13.89° C | 62% | 1012.3 hPa | 0 mm | - | - | - |
| 1777775435 | 13.89° C | 62% | 1012.3 hPa | 0 mm | - | - | - |
| 1777775135 | 13.89° C | 64% | 1012.2 hPa | 0 mm | - | - | - |
| 1777774956 | 13.89° C | 62% | 1012.1 hPa | 0 mm | - | - | - |
| 1777774835 | 13.89° C | 63% | 1011.9 hPa | 0 mm | - | - | - |
| 1777774535 | 13.89° C | 62% | 1011.7 hPa | 0 mm | - | - | - |
| 1777774416 | 13.89° C | 62% | 1011.7 hPa | 0 mm | - | - | - |
| 1777774235 | 13.89° C | 63% | 1011.5 hPa | 0 mm | - | - | - |
| 1777773935 | 13.89° C | 64% | 1011.4 hPa | 0 mm | - | - | - |
| 1777773876 | 13.89° C | 64% | 1011.3 hPa | 0 mm | - | - | - |
| 1777773635 | 13.89° C | 63% | 1011.2 hPa | 0 mm | - | - | - |
| 1777773335 | 13.89° C | 64% | 1011.3 hPa | 0 mm | - | - | - |
| 1777773035 | 13.89° C | 64% | 1011.1 hPa | 0 mm | - | - | - |
| 1777772796 | 13.89° C | 64% | 1010.9 hPa | 0 mm | - | - | - |
| 1777772735 | 13.89° C | 64% | 1010.9 hPa | 0 mm | - | - | - |
| 1777772435 | 13.89° C | 64% | 1011.1 hPa | 0 mm | - | - | - |
| 1777772135 | 13.89° C | 64% | 1011 hPa | 0 mm | - | - | - |
| 1777771835 | 13.89° C | 64% | 1011.1 hPa | 0 mm | - | - | - |
| 1777771716 | 13.89° C | 64% | 1011 hPa | 0 mm | - | - | - |
* Rain latest hour (hover to see other rain measurements)
** Current wind speed in m/s (hover to see current wind gust speed)